User: anonymous   Login
Location: Unspecified
(0.0000°N, 0.0000°E)
Time: 01:21:50
(UTC+00:00)
Language:

Meteor PRIRODA - Orbit

View from above orbital plane
View from above orbital plane
View from above satellite
View from above satellite

Ground track
Ground track

The orbit data is extracted from the following two-line orbital elements,

1 12585U 81065A   18200.54751603 +.00000455 +00000-0 +23649-4 0  9995
2 12585 097.4750 180.5121 0016291 091.1340 269.1762 15.20967090016841
Epoch (UTC): 19 July 2018 13:08:25
Eccentricity: 0.0016291
inclination: 97.4750°
perigee height: 492 km
apogee height: 514 km
right ascension of ascending node: 180.5121°
argument of perigee: 91.1340°
revolutions per day: 15.20967090
mean anomaly at epoch: 269.1762°
orbit number at epoch: 1684

The dashed part of the orbit path shows where the satellite is in the earth's shadow,  

DLR